Weather History for Grayling, MI

Change the Weather History Date:

Sunday, May 26, 2013

  Actual Average (KHTL) Record (KHTL)
Temperature  
Mean Temperature 48 °F 57 °F  
Max Temperature 68 °F 69 °F 90 °F (1944)
Min Temperature 29 °F 45 °F 26 °F (1930)
Degree Days  
Heating Degree Days 16 9  
Month to date heating degree days 318  
Since 1 July heating degree days 7979  
Cooling Degree Days 0 1  
Month to date cooling degree days 7  
Year to date cooling degree days 9  
Moisture  
Dew Point 31 °F    
Average Humidity 56    
Maximum Humidity 100    
Minimum Humidity 20    
Precipitation  
Precipitation 0.00 in 0.10 in 1.25 in (1991)
Month to date precipitation 2.33  
Year to date precipitation 9.37  
Sea Level Pressure  
Sea Level Pressure 30.31 in    
Wind  
Wind Speed 2 mph (ESE)    
Max Wind Speed 13 mph    
Max Gust Speed -    
Visibility 10 miles    
Events      
T = Trace of Precipitation, MM = Missing Value Source: NWS Daily Summary

Daily Weather History Graph

Daily Weather History Graph

Search for Another Location

Airport:

Trip Planner

Search our weather history database for the weather conditions in past years. The results will help you decide how hot, cold, wet, or windy it might be!

Date:

Astronomy

May. 26, 2013 Rise Set
Actual Time 6:00 AM EDT 9:12 PM EDT
Civil Twilight 5:24 AM EDT 9:47 PM EDT
Nautical Twilight 4:39 AM EDT 10:33 PM EDT
Astronomical Twilight 3:43 AM EDT 11:29 PM EDT
Moon 10:57 PM EDT (5/26) 7:29 AM EDT (5/26)
Length of Visible Light 16h 22m
Length of Day
15h 11m
Waning Gibbous, 97% of the Moon is Illuminated
May 26
Waning Gibbous
May 31
Last Quarter
Jun 8
New
Jun 16
First Quarter
Jun 23
Full

Hourly Weather History & Observations

Time (EDT) Temp. Dew Point Humidity Pressure Visibility Wind Dir Wind Speed Gust Speed Precip Events Conditions
12:15 AM 35.8 °F 32.7 °F 89% 30.33 in 10.0 mi Calm Calm - N/A   Clear
12:34 AM 35.8 °F 32.2 °F 87% 30.34 in 10.0 mi Calm Calm - N/A   Clear
12:55 AM 35.8 °F 33.4 °F 91% 30.33 in 10.0 mi Calm Calm - N/A   Clear
1:15 AM 34.5 °F 32.7 °F 93% 30.33 in 10.0 mi Calm Calm - N/A   Clear
1:34 AM 33.4 °F 32.5 °F 96% 30.33 in 10.0 mi Calm Calm - N/A   Clear
1:55 AM 33.3 °F 32.2 °F 96% 30.33 in 10.0 mi Calm Calm - N/A   Clear
2:15 AM 33.3 °F 32.2 °F 96% 30.33 in 10.0 mi Calm Calm - N/A   Clear
2:34 AM 33.3 °F 32.9 °F 99% 30.33 in 10.0 mi Calm Calm - N/A   Clear
2:55 AM 32.5 °F 32.0 °F 98% 30.33 in 10.0 mi Calm Calm - N/A   Clear
3:15 AM 33.3 °F 33.1 °F 99% 30.33 in 10.0 mi Calm Calm - N/A   Clear
3:34 AM 32.9 °F 32.9 °F 100% 30.33 in 10.0 mi Calm Calm - N/A   Clear
3:55 AM 32.2 °F 32.2 °F 100% 30.33 in 10.0 mi Calm Calm - N/A   Clear
4:15 AM 31.3 °F 30.7 °F 98% 30.33 in 10.0 mi Calm Calm - N/A   Clear
4:34 AM 31.1 °F 31.1 °F 100% 30.33 in 10.0 mi Calm Calm - N/A   Clear
4:55 AM 32.4 °F 32.4 °F 100% 30.33 in 10.0 mi Calm Calm - N/A   Clear
5:14 AM 29.5 °F 29.5 °F 100% 30.33 in 10.0 mi Calm Calm - N/A   Clear
5:35 AM 31.1 °F 31.1 °F 100% 30.33 in 10.0 mi Calm Calm - N/A   Clear
5:55 AM 30.0 °F 29.8 °F 99% 30.33 in 7.0 mi Calm Calm - N/A   Clear
6:14 AM 29.8 °F 29.8 °F 100% 30.34 in 7.0 mi Calm Calm - N/A   Clear
6:35 AM 30.0 °F 29.1 °F 96% 30.35 in 10.0 mi Calm Calm - N/A   Clear
6:55 AM 33.3 °F 32.4 °F 96% 30.35 in 10.0 mi Calm Calm - N/A   Clear
7:14 AM 34.9 °F 34.2 °F 97% 30.36 in 10.0 mi Calm Calm - N/A   Clear
7:35 AM 36.5 °F 33.4 °F 89% 30.36 in 10.0 mi Calm Calm - N/A   Clear
7:55 AM 38.5 °F 35.2 °F 88% 30.35 in 10.0 mi Calm Calm - N/A   Clear
8:14 AM 41.4 °F 36.0 °F 81% 30.36 in 10.0 mi Calm Calm - N/A   Clear
8:35 AM 45.9 °F 35.8 °F 68% 30.36 in 10.0 mi Calm Calm - N/A   Clear
8:55 AM 48.4 °F 35.8 °F 62% 30.38 in 10.0 mi Calm Calm - N/A   Clear
9:14 AM 51.1 °F 34.0 °F 52% 30.38 in 10.0 mi Calm Calm - N/A   Clear
9:35 AM 53.6 °F 32.2 °F 44% 30.39 in 10.0 mi Calm Calm - N/A   Clear
9:55 AM 55.9 °F 32.2 °F 41% 30.36 in 10.0 mi ESE 5.8 mph - N/A   Clear
10:14 AM 56.1 °F 29.7 °F 36% 30.35 in 10.0 mi ESE 4.6 mph - N/A   Clear
10:35 AM 58.5 °F 30.6 °F 35% 30.36 in 10.0 mi East 5.8 mph - N/A   Clear
10:55 AM 58.6 °F 27.1 °F 30% 30.35 in 10.0 mi Calm Calm - N/A   Clear
11:14 AM 59.7 °F 27.5 °F 29% 30.34 in 10.0 mi NE 3.5 mph - N/A   Clear
11:35 AM 59.9 °F 26.8 °F 28% 30.34 in 10.0 mi Calm Calm - N/A   Clear
11:55 AM 61.2 °F 27.0 °F 27% 30.34 in 10.0 mi SW 4.6 mph - N/A   Clear
12:14 PM 61.7 °F 26.2 °F 26% 30.34 in 10.0 mi Calm Calm - N/A   Clear
12:35 PM 63.5 °F 27.1 °F 25% 30.33 in 10.0 mi NNE 6.9 mph - N/A   Clear
12:55 PM 62.8 °F 25.9 °F 25% 30.33 in 10.0 mi Calm Calm - N/A   Clear
1:14 PM 65.8 °F 28.2 °F 24% 30.33 in 10.0 mi East 8.1 mph - N/A   Clear
1:35 PM 64.4 °F 26.4 °F 24% 30.32 in 10.0 mi ENE 4.6 mph - N/A   Clear
1:55 PM 65.1 °F 27.3 °F 24% 30.31 in 10.0 mi South 3.5 mph - N/A   Clear
2:14 PM 68.5 °F 30.4 °F 24% 30.31 in 10.0 mi East 10.4 mph - N/A   Clear
2:35 PM 68.5 °F 29.3 °F 23% 30.31 in 10.0 mi ESE 4.6 mph - N/A   Clear
2:55 PM 68.5 °F 28.4 °F 22% 30.30 in 10.0 mi Calm Calm - N/A   Clear
3:14 PM 68.5 °F 28.0 °F 22% 30.30 in 10.0 mi South 3.5 mph - N/A   Clear
3:35 PM 68.5 °F 26.6 °F 21% 30.29 in 10.0 mi Calm Calm - N/A   Clear
3:54 PM 68.5 °F 26.2 °F 20% 30.28 in 10.0 mi Calm Calm - N/A   Clear
4:15 PM 68.5 °F 26.1 °F 20% 30.28 in 10.0 mi Calm Calm - N/A   Clear
4:35 PM 68.5 °F 26.6 °F 21% 30.27 in 10.0 mi South 4.6 mph - N/A   Clear
4:54 PM 68.5 °F 26.4 °F 21% 30.26 in 10.0 mi Calm Calm - N/A   Clear
5:15 PM 68.5 °F 25.9 °F 20% 30.26 in 10.0 mi ENE 4.6 mph - N/A   Clear
5:35 PM 68.5 °F 25.7 °F 20% 30.25 in 10.0 mi Calm Calm - N/A   Clear
5:54 PM 68.7 °F 27.1 °F 21% 30.24 in 10.0 mi ESE 8.1 mph - N/A   Clear
6:15 PM 68.5 °F 27.0 °F 21% 30.24 in 10.0 mi Calm Calm - N/A   Clear
6:34 PM 68.5 °F 27.5 °F 22% 30.24 in 10.0 mi NNE 4.6 mph - N/A   Clear
6:55 PM 68.5 °F 28.4 °F 22% 30.23 in 10.0 mi NNE 4.6 mph - N/A   Clear
7:15 PM 68.5 °F 28.6 °F 22% 30.23 in 10.0 mi NE 5.8 mph - N/A   Clear
7:34 PM 68.5 °F 30.2 °F 24% 30.23 in 10.0 mi NNE 5.8 mph - N/A   Clear
7:55 PM 65.5 °F 36.5 °F 34% 30.23 in 10.0 mi SSE 9.2 mph - N/A   Clear
8:15 PM 62.1 °F 36.0 °F 38% 30.24 in 10.0 mi SE 12.7 mph - N/A   Clear
8:34 PM 60.4 °F 36.3 °F 41% 30.25 in 10.0 mi ESE 11.5 mph - N/A   Clear
8:55 PM 58.5 °F 36.1 °F 43% 30.25 in 10.0 mi ESE 11.5 mph - N/A   Clear
9:15 PM 55.9 °F 35.1 °F 45% 30.26 in 10.0 mi SE 9.2 mph - N/A   Clear
9:34 PM 55.0 °F 36.0 °F 49% 30.26 in 10.0 mi SE 8.1 mph - N/A   Clear
9:55 PM 54.1 °F 35.1 °F 49% 30.26 in 10.0 mi SE 9.2 mph - N/A   Clear
10:15 PM 53.6 °F 35.4 °F 50% 30.26 in 10.0 mi SE 6.9 mph - N/A   Clear
10:34 PM 53.6 °F 36.7 °F 53% 30.26 in 10.0 mi SE 4.6 mph - N/A   Clear
10:55 PM 48.9 °F 34.3 °F 57% 30.27 in 10.0 mi Calm Calm - N/A   Clear
11:15 PM 47.7 °F 36.0 °F 64% 30.27 in 10.0 mi East 4.6 mph - N/A   Clear
11:34 PM 45.3 °F 35.4 °F 68% 30.28 in 10.0 mi Calm Calm - N/A   Clear
11:55 PM 43.7 °F 34.7 °F 71% 30.28 in 10.0 mi Calm Calm - N/A   Clear